Regional Weather Roundup
Issued by NWS

Home | Current Version | Previous Version | Graphics & Text | Print | Product List | Glossary On
Versions: 1 2 3 4 5 6 7 8 9 10 11 12 13 14 15 16 17 18 19 20 21 22 23 24 25 26 27 28 29 30 31 32 33 34 35 36 37 38 39 40 41 42 43 44 45 46 47 48 49 50
000
ASUS45 KBOI 200610
RWRID
WEATHER ROUNDUP FOR IDAHO
NATIONAL WEATHER SERVICE BOISE ID
1200 AM MDT MON APR 20 2015

NOTE: "FAIR" INDICATES FEW OR NO CLOUDS BELOW 12000 FEET
WITH NO SIGNIFICANT WEATHER AND/OR OBSTRUCTIONS TO VISIBILITY

IDZ012-014-200700-
SOUTHWEST IDAHO


CITY           SKY/WX    TMP DP  RH WIND       PRES   REMARKS
BOISE          CLEAR     52  31  44 CALM      29.94F
CALDWELL       CLEAR     48  27  43 E6        29.95S
MOUNTAIN HOME  CLEAR     50  26  38 N8        29.94S
$$

IDZ016-017-200700-
SOUTHCENTRAL IDAHO


CITY           SKY/WX    TMP DP  RH WIND       PRES   REMARKS
BURLEY         CLEAR     42  29  59 SW9       29.95F
JEROME         CLEAR     47  26  44 S9        29.96S
TWIN FALLS     CLEAR     46  22  38 S13       29.97S
$$

IDZ019>023-200700-
SOUTHEAST IDAHO


CITY           SKY/WX    TMP DP  RH WIND       PRES   REMARKS
IDAHO FALLS    PTCLDY    48  26  42 CALM      29.97S
POCATELLO      CLOUDY    47  25  42 S7        29.97S
REXBURG        MOCLDY    48  26  42 NE9       29.99R
$$

IDZ006-010-011-018-031-032-200700-
CENTRAL IDAHO MOUNTAINS


CITY           SKY/WX    TMP DP  RH WIND       PRES   REMARKS
MCCALL         CLEAR     47  25  42 N9        30.01F
HAILEY         CLEAR     45  30  57 NW13      29.99F
STANLEY          N/A     31  21  66 S5        30.05S WCI  26
SALMON         CLEAR     45  23  42 S5        29.99R
CHALLIS        CLEAR     44  21  40 NW7       30.00R
$$

IDZ002-004-006-007-026-200700-
NORTHERN IDAHO


CITY           SKY/WX    TMP DP  RH WIND       PRES   REMARKS
LEWISTON       CLEAR     53  33  46 S6        29.97F
LOWELL           N/A     46  40  79 N3        30.03R
COEUR D`ALENE  CLEAR     48  34  57 CALM      29.99S
MULLAN PASS    CLEAR     40  25  55 NW5       30.05F
$$



USA.gov is the U.S. government's official web portal to all federal, state and local government web resources and services.